{"data":{"norad_id":64372,"intl_designator":"2025-127C","name":"STARLINK-11746 [DTC]","alt_names":[],"object_type":"PAYLOAD","status":"ACTIVE","operator":null,"country":"US","launch_date":"2025-06-13","launch_site_code":"AFETR","launch_vehicle":null,"mission":null,"orbit_class":"UNKNOWN","rcs_meters":null,"size_class":null,"mass_kg":null,"dimensions":null,"purposes":["comms"],"wikipedia_slug":null,"has_3d_model":false,"image_url":null,"decayed_at":null,"tle_current":{"epoch":"2026-05-24T22:08:20.063616Z","epoch_age_seconds":91858,"freshness":"FRESH","line1":"1 64372U 25127C   26144.92245444  .00161290  00000+0  12349-2 0  9999","line2":"2 64372  43.0010 344.8685 0001846 281.8380  78.2281 15.70865688 55494","mean_motion":15.70865688,"eccentricity":0.0001846,"inclination_deg":43.001,"raan_deg":344.8685,"arg_perigee_deg":281.838,"mean_anomaly_deg":78.2281,"bstar":0.0012349,"rev_number":5549,"period_min":91.669199410255,"perigee_km":355.17844193229,"apogee_km":357.66484098272,"semimajor_km":6734.5586414575,"source":"CELESTRAK","updated_at":"2026-05-25T13:38:20.409174Z"}}}